Temperature
22 22 21 20 20 19 22 23 24 24 24 24 24 24 23 22 21 21 20 21 21 20 20 19 19 19 20 20 20 20 19 19 19 19 19 19 19 19 19 18 18 18 18 18 18 18 18 18 18
22 22 21 20 20 21 22 24 24 24 24 25 24 24 22 21 21 21 20 21 21 20 20 20 20 20 20 20 20 20 20 19 19 19 19 19 19 19 19 18 18 18 18 18 18 18 18 18 18
22 21 21 19 20 21 23 24 24 25 25 25 24 23 22 21 21 21 21 21 20 20 20 20 20 20 20 20 20 20 19 19 19 19 19 19 19 19 18 18 18 18 18 18 18 18 18 18 18
22 21 21 19 22 22 23 24 25 25 25 25 24 22 21 21 22 22 21 21 20 20 20 20 20 20 20 20 20 19 19 19 19 19 19 19 19 18 18 18 18 18 18 18 18 18 18 18 18
22 21 19 19 21 22 24 25 25 25 25 24 23 21 21 21 22 22 21 21 21 20 20 20 20 20 20 20 20 19 19 19 19 19 19 19 18 18 18 18 18 18 18 18 18 18 18 18 17
22 19 19 20 22 24 24 26 25 25 24 24 23 21 20 21 22 22 21 21 21 20 20 20 20 20 20 20 19 19 19 19 19 19 19 18 18 18 18 18 18 18 18 18 17 17 17 17 17
21 18 20 21 22 23 25 26 25 24 24 24 23 20 19 20 21 21 21 21 20 20 20 20 19 19 19 19 19 19 19 19 19 18 18 18 18 18 18 18 18 18 18 18 17 17 17 17 17
22 18 21 21 22 24 25 26 26 25 24 24 24 21 19 20 21 21 20 20 20 20 20 20 19 19 19 19 19 19 19 18 18 18 18 18 18 18 18 18 18 18 18 17 17 17 17 17 17
22 18 19 21 22 24 25 25 26 25 25 24 24 23 23 21 21 20 20 19 19 19 19 19 19 19 19 19 19 19 18 18 18 18 18 18 18 18 18 18 18 18 17 17 17 17 17 17 17
21 18 20 22 23 24 25 25 25 25 24 23 23 22 22 21 20 20 20 19 19 19 19 19 19 19 19 19 19 19 18 18 18 18 18 18 18 18 18 18 18 17 17 17 17 17 17 17 17
20 20 21 23 25 25 24 25 26 24 23 23 23 22 21 21 20 20 20 20 20 20 19 19 19 19 19 19 19 19 18 18 18 18 18 18 18 18 18 18 17 17 17 17 17 17 17 17 17
20 21 23 24 26 25 25 25 25 25 26 27 26 25 23 21 20 20 20 20 20 20 20 20 19 19 19 19 19 19 18 18 18 18 18 18 18 18 18 18 18 17 17 17 17 17 17 17 17
22 22 24 25 26 25 25 25 25 25 27 26 25 23 23 22 21 21 21 21 20 20 20 20 20 19 19 19 19 19 19 18 18 18 18 18 18 18 18 18 17 17 17 17 17 17 17 17 17
23 23 24 25 25 25 25 24 24 25 26 25 24 23 22 22 21 20 20 20 20 20 20 20 20 20 19 19 19 19 19 18 18 18 18 18 18 18 18 18 17 17 17 17 17 17 17 17 17
24 23 23 23 24 25 25 24 24 25 25 23 23 22 21 21 21 21 21 21 21 21 20 20 20 20 19 19 19 19 19 18 18 18 18 18 18 18 18 17 17 17 17 17 17 17 17 17 17
23 22 22 23 24 24 24 24 24 24 23 22 21 21 21 21 21 21 21 21 21 21 20 20 20 20 19 19 19 19 19 18 18 18 18 17 17 17 17 17 17 17 17 17 17 17 17 17 17
20 21 22 23 23 24 24 23 23 23 23 21 21 21 20 20 20 21 21 21 21 21 21 20 20 20 19 19 19 19 18 18 18 18 18 17 17 17 17 17 17 17 17 17 17 17 17 17 17
20 22 22 22 23 23 23 22 22 22 22 21 21 21 21 21 22 22 21 21 21 21 21 20 20 20 19 19 18 18 18 18 18 18 17 17 17 17 17 17 17 17 17 17 17 17 17 17 17
22 22 22 22 23 23 22 21 21 21 21 21 21 21 21 21 22 21 21 21 21 20 20 20 20 19 19 19 18 18 18 18 18 17 17 17 17 17 17 17 17 17 17 17 17 17 17 17 17
22 22 21 21 23 23 21 21 21 20 20 21 21 21 21 21 21 21 21 20 20 20 20 20 20 19 19 19 19 18 18 18 18 17 17 17 17 17 17 17 17 17 17 17 17 17 16 16 16
21 21 21 22 22 22 22 21 20 20 20 21 21 21 21 21 21 21 21 21 20 20 20 20 20 19 19 18 18 18 17 17 17 17 17 17 17 17 17 17 17 17 17 17 17 17 16 16 16
20 22 22 22 21 20 21 20 20 19 19 20 20 21 21 21 21 21 21 21 20 20 20 20 19 19 19 19 18 18 17 17 18 18 18 17 17 17 17 17 17 17 17 17 17 17 16 16 16
21 22 22 22 21 20 20 20 19 19 20 20 19 20 21 21 21 21 21 21 21 20 20 20 19 19 19 19 18 18 18 18 17 17 18 17 17 17 17 17 17 17 17 17 17 16 16 16 16
22 21 20 17 18 19 20 19 19 18 19 19 19 20 21 21 21 21 21 21 20 20 20 19 19 19 18 18 18 18 18 17 17 17 17 17 17 17 17 17 17 17 17 17 17 16 16 16 16
22 19 18 19 18 18 19 19 18 19 19 19 19 19 20 21 21 21 21 20 20 20 20 19 19 18 18 18 18 18 18 18 17 17 17 17 17 17 17 17 17 17 17 17 16 16 16 16 16
20 19 19 19 19 18 18 18 19 19 19 19 19 19 20 20 20 20 20 20 20 20 20 19 19 19 18 18 18 18 17 17 18 17 17 17 17 17 17 17 17 17 17 17 16 16 16 16 16
20 19 19 17 18 18 18 18 18 19 19 18 18 18 18 19 19 20 20 20 20 19 19 19 19 18 18 18 17 17 17 17 17 17 17 17 17 17 17 17 17 17 17 16 16 16 16 16 16
20 17 16 17 18 19 20 19 18 19 18 18 17 17 18 18 19 19 19 20 20 19 19 19 18 18 18 17 17 17 17 17 17 17 17 17 17 17 17 17 17 17 16 16 16 16 16 16 16
19 18 16 15 17 18 19 19 19 18 18 18 17 18 18 18 19 19 19 19 19 19 19 18 18 18 17 17 17 17 17 17 17 17 17 17 17 17 17 17 17 16 16 16 16 16 16 15 15
20 18 17 18 18 16 18 18 19 18 17 17 17 18 18 18 18 19 19 19 19 19 18 18 18 18 17 17 17 17 17 17 17 17 17 16 16 16 17 16 16 16 16 16 16 16 16 15 15
Wind_Speed
5 5 2 1 3 4 2 3 1 1 0 1 5 5 6 4 4 3 5 14 18 17 17 20 21 20 20 20 20 20 20 19 19 19 18 17 17 17 16 16 15 16 16 16 16 16 17 17 17
4 3 1 3 4 3 3 2 1 1 2 4 5 4 4 3 4 8 9 13 19 16 17 19 21 20 20 19 19 19 19 19 18 18 17 17 16 16 16 15 15 15 16 16 16 16 17 17 16
4 2 3 4 3 3 2 2 2 2 3 3 4 4 3 4 7 8 9 17 17 14 16 20 22 21 20 19 19 18 18 18 17 17 16 16 16 16 15 15 15 15 15 15 15 16 16 16 16
3 3 4 4 1 4 4 3 3 4 2 3 4 4 3 3 7 9 16 19 17 13 15 20 22 21 20 19 19 18 17 17 17 16 15 15 15 15 15 15 14 15 15 15 15 15 15 15 14
3 4 4 2 4 5 4 5 6 5 3 2 4 4 3 4 10 17 19 18 17 13 13 19 22 21 20 19 18 18 17 17 16 15 15 15 15 14 14 14 14 14 14 14 14 14 14 14 13
4 4 4 2 5 5 4 5 5 4 4 4 5 4 2 4 13 18 17 16 15 15 12 17 21 21 19 19 18 17 17 16 16 15 15 14 14 14 14 14 13 13 13 13 13 13 13 12 11
4 4 3 3 4 4 2 3 6 6 5 5 6 6 3 6 11 15 14 14 13 12 11 12 17 19 19 18 17 17 16 16 15 15 15 14 14 14 13 13 13 13 13 13 13 13 12 11 11
5 5 1 2 3 4 2 1 3 5 4 5 6 8 7 10 14 14 13 12 11 10 9 9 12 14 15 16 17 17 16 16 15 15 15 14 14 13 12 12 12 12 12 12 12 12 11 11 11
4 4 3 5 5 4 1 2 1 3 6 4 4 5 8 19 19 17 15 11 12 12 9 9 9 10 12 13 16 16 16 16 15 14 15 13 11 11 11 11 11 11 11 11 11 10 10 10 10
5 4 8 6 5 2 2 1 2 4 4 3 4 7 18 22 20 20 20 19 17 16 13 10 9 9 11 12 12 12 12 13 11 11 12 11 10 10 9 10 10 10 10 10 9 9 9 9 8
7 7 5 6 6 3 2 2 3 8 6 9 10 17 23 22 20 19 19 18 17 16 15 12 10 9 9 7 9 8 9 10 10 11 12 11 9 8 7 6 6 7 8 7 8 8 8 7 7
6 7 6 5 3 3 4 3 3 9 10 8 13 23 25 24 22 21 20 18 15 16 15 13 11 9 8 8 7 7 7 8 8 10 12 10 6 5 5 5 5 6 6 6 6 6 6 6 6
6 5 5 7 8 5 5 6 5 8 7 9 17 22 23 22 19 16 14 15 14 16 15 14 13 11 8 7 7 8 7 7 9 10 11 11 7 5 5 5 5 5 5 5 5 5 5 4 5
6 6 6 7 6 3 4 4 4 8 6 13 19 20 21 20 19 16 15 16 16 16 15 14 14 12 9 8 6 6 8 9 9 9 10 11 9 6 5 4 4 4 5 5 5 4 4 3 4
2 3 6 4 3 2 3 2 4 4 10 14 16 17 17 16 16 18 19 18 17 16 14 14 14 12 11 9 8 8 9 9 8 9 11 11 10 9 7 4 4 4 5 5 5 4 4 3 3
2 2 3 6 3 1 4 5 5 4 11 12 14 15 15 14 15 14 14 14 14 15 15 15 15 14 12 10 8 7 9 9 8 10 11 12 12 11 8 5 4 6 6 5 4 3 3 2 2
4 1 2 5 3 2 2 5 5 4 10 11 13 13 13 12 13 13 14 14 14 15 16 16 13 14 13 10 8 7 8 8 9 10 10 12 12 12 9 6 6 7 5 4 3 2 2 2 2
4 2 2 4 4 4 2 5 4 4 8 9 10 11 12 14 16 14 14 14 14 14 14 15 13 13 12 9 7 6 6 6 8 9 11 12 12 13 10 7 7 8 5 3 3 3 2 2 2
5 2 4 5 4 2 3 5 4 4 6 7 8 9 11 13 10 10 12 14 14 13 14 14 14 14 12 10 10 9 9 8 7 8 12 13 13 13 10 6 6 6 5 5 5 3 3 2 2
4 3 5 5 2 1 2 4 2 3 6 8 9 10 10 9 8 9 11 12 15 16 15 15 15 15 14 12 10 7 7 6 7 6 9 13 13 13 12 8 7 7 5 5 5 4 3 2 2
5 6 5 4 4 3 1 5 3 2 2 2 4 6 7 9 10 10 10 12 13 14 16 15 15 15 14 12 8 6 4 3 5 6 7 10 13 13 12 11 8 7 7 6 6 6 6 4 1
6 7 7 4 0 3 2 2 5 3 4 4 4 5 5 6 8 8 9 10 12 13 12 13 14 14 14 14 12 13 10 8 8 8 7 8 12 13 13 12 10 8 7 7 7 6 4 5 3
8 4 4 3 4 0 1 2 7 3 4 6 5 4 4 5 7 8 9 10 10 10 11 11 12 13 14 15 16 15 11 8 6 7 9 9 8 10 12 12 10 8 7 7 7 6 5 4 5
5 6 6 6 5 1 3 4 6 4 5 5 4 3 4 5 6 7 7 7 7 8 9 10 12 13 13 15 15 16 15 12 11 10 10 9 7 7 10 11 10 9 7 7 7 7 7 5 5
6 6 4 3 3 5 2 3 8 6 5 5 4 4 4 4 5 6 6 7 6 7 8 9 12 12 13 14 15 15 15 14 14 12 12 10 7 7 10 9 8 8 7 8 7 7 6 6 6
7 10 8 6 5 4 2 5 7 4 3 2 2 2 2 3 3 4 5 6 6 7 7 8 10 11 12 13 13 12 12 10 10 11 10 11 9 9 10 10 10 9 9 8 7 6 6 6 6
8 6 8 7 4 1 4 6 7 2 2 1 0 1 2 3 3 4 5 5 6 6 6 7 8 7 9 11 11 11 11 11 11 11 10 9 8 8 10 10 10 9 9 9 8 6 6 6 6
7 10 7 7 7 3 4 4 5 6 4 3 1 2 2 3 3 3 4 4 4 3 3 5 6 7 7 9 9 10 10 11 11 10 11 10 10 9 10 10 10 9 8 8 7 6 6 6 5
6 6 6 6 6 7 4 7 6 7 5 5 4 3 3 2 2 3 3 4 4 4 3 4 5 6 7 8 8 8 9 9 10 10 11 11 10 10 11 11 10 9 9 9 8 7 7 7 6
6 8 8 7 5 5 5 7 4 5 5 4 3 2 3 3 2 2 3 3 4 4 4 4 4 5 6 6 6 7 8 9 10 10 11 11 11 10 10 10 10 10 9 9 9 9 9 8 8
Wind_Direction
178 155 147 114 57 45 338 292 243 342 65 134 141 136 138 139 169 176 130 141 137 144 150 149 145 140 135 131 128 126 125 125 125 126 126 125 124 122 120 119 116 114 112 111 110 109 109 110 111
138 149 121 64 73 49 309 280 235 257 159 112 96 89 94 92 86 114 133 143 141 144 147 149 148 143 139 135 132 130 129 128 128 128 127 126 125 124 122 120 117 116 115 114 112 112 112 112 112
148 160 88 71 96 174 249 254 197 105 107 107 97 72 94 131 132 140 147 142 140 142 145 153 149 146 143 139 136 135 133 132 131 130 129 128 127 125 123 121 119 118 117 116 115 114 114 114 114
120 60 57 67 239 231 225 216 171 133 69 67 105 87 74 96 142 142 140 143 140 141 147 155 151 149 146 143 141 139 138 137 135 133 132 131 129 128 125 124 121 120 119 117 117 117 117 117 117
66 78 57 10 270 254 240 213 177 162 157 110 109 105 61 26 116 134 142 145 144 143 149 156 153 152 150 148 146 144 142 141 139 137 135 134 133 132 129 127 124 122 120 119 120 120 119 120 119
62 71 83 284 280 275 257 201 161 161 152 126 120 110 64 109 130 142 146 146 148 148 149 155 156 155 154 152 150 149 147 145 144 142 140 138 136 134 131 129 127 124 122 122 122 121 120 119 120
111 106 162 235 284 302 284 171 163 164 158 162 136 118 115 141 143 143 142 141 144 147 146 151 157 158 158 156 154 153 151 149 148 146 143 140 138 136 134 131 129 127 125 124 124 122 120 117 118
130 109 160 249 254 279 298 81 152 151 160 132 132 149 170 166 146 137 135 138 143 147 148 147 152 155 156 158 159 158 156 154 152 149 146 144 142 139 137 133 133 132 129 127 125 122 120 119 120
106 88 206 220 211 254 316 28 8 108 117 130 146 163 158 146 144 142 143 146 155 159 156 150 148 149 151 157 164 162 161 160 158 156 152 145 137 135 135 139 140 137 133 129 125 121 119 119 124
117 169 222 217 206 234 307 299 195 127 142 153 99 106 133 147 154 158 162 166 169 170 169 161 154 151 153 163 161 159 158 158 154 151 142 134 132 135 139 148 145 140 133 126 120 116 113 109 114
169 200 228 237 234 235 263 259 185 148 201 205 175 152 151 158 164 169 172 173 174 171 172 168 162 157 157 155 152 150 146 146 144 142 137 137 135 134 133 134 128 124 118 108 106 100 104 111 116
189 238 232 253 240 225 217 214 199 188 218 200 163 155 159 167 174 177 176 175 172 173 176 170 166 163 161 155 153 150 147 148 148 148 147 144 139 133 133 125 119 113 112 107 102 103 109 117 124
219 257 253 257 271 243 224 224 218 232 224 144 145 157 168 175 178 179 175 173 173 177 177 174 171 170 166 156 160 160 155 156 156 155 157 157 152 146 141 135 132 128 126 121 113 107 110 122 126
227 240 278 287 279 249 216 249 199 246 166 146 155 168 176 179 177 175 175 178 179 180 179 177 176 174 167 166 163 158 160 160 161 164 167 168 165 157 149 145 142 142 141 130 124 120 118 124 128
273 292 316 299 274 261 149 293 234 230 147 156 167 173 179 183 181 185 184 181 180 180 179 180 180 176 173 170 169 164 165 166 170 173 176 178 176 169 162 156 158 158 147 132 119 111 110 118 121
32 44 318 302 316 321 131 248 271 174 155 165 173 177 183 188 190 191 185 181 178 176 178 182 186 181 179 174 169 165 169 171 177 179 182 186 184 177 168 167 170 164 152 140 127 117 106 104 114
34 107 254 307 337 38 117 248 277 178 165 173 180 184 186 190 193 194 188 185 181 180 180 182 185 182 181 175 171 168 171 177 181 182 185 190 188 182 176 176 174 164 152 148 148 118 120 131 133
209 196 251 279 313 5 325 260 268 190 177 183 185 188 189 197 202 193 189 185 182 182 182 183 182 181 177 172 166 165 175 180 181 186 188 187 188 185 180 177 173 163 150 152 142 125 102 113 127
169 184 267 268 279 304 277 274 265 198 176 185 192 197 201 209 201 185 186 182 180 182 184 185 184 180 177 180 180 183 190 187 188 192 188 188 189 186 180 180 170 166 166 168 153 132 124 109 111
189 240 272 295 337 273 288 302 282 203 202 197 198 207 209 199 180 180 181 183 186 187 189 187 189 185 184 189 185 186 180 184 189 188 187 190 190 186 188 180 178 173 163 162 161 148 137 130 141
208 205 232 256 341 3 17 336 324 296 260 226 225 224 212 195 188 184 180 184 185 190 191 192 192 190 188 182 169 162 147 145 174 186 189 191 191 189 189 186 179 176 172 177 178 167 156 157 152
237 224 213 223 170 296 55 287 288 289 286 255 246 235 216 195 178 180 185 186 192 195 192 192 191 192 187 179 178 178 183 189 193 189 187 185 190 191 191 186 182 179 178 179 182 174 165 154 162
209 201 185 191 169 219 15 170 281 311 275 269 259 248 223 194 181 184 190 192 194 191 191 191 190 193 189 185 187 187 190 191 179 175 179 183 187 191 191 186 183 181 182 181 178 170 171 168 165
163 80 60 54 86 189 231 169 269 250 240 264 264 254 221 194 181 181 181 180 186 186 189 187 189 196 191 189 191 192 190 183 176 182 186 188 186 190 190 186 185 185 184 183 182 178 178 181 173
128 103 44 15 26 243 259 189 247 252 241 241 251 247 216 185 173 174 172 172 184 188 187 187 190 196 192 193 195 194 192 188 187 188 190 189 188 193 193 189 186 186 187 185 178 176 183 184 182
168 146 158 181 205 263 322 231 253 259 268 269 238 217 155 142 163 175 179 173 181 191 189 187 191 197 192 194 196 192 190 191 193 192 189 191 195 195 187 186 188 187 183 183 177 179 187 187 193
142 170 159 131 138 115 283 286 302 265 306 317 345 131 152 148 147 165 166 164 170 185 190 187 190 191 191 193 192 193 192 193 194 191 188 190 190 189 182 185 187 186 183 180 174 182 187 185 195
142 142 112 128 147 207 277 276 255 257 256 249 219 191 175 152 150 157 161 158 159 168 180 177 178 187 195 194 196 199 198 193 192 189 188 189 188 184 179 183 184 183 184 180 176 179 183 182 191
117 111 113 118 148 155 216 264 229 221 215 213 216 203 180 171 167 165 163 144 130 124 143 161 169 177 183 189 191 192 192 191 188 190 190 188 185 181 180 181 182 184 186 182 182 188 184 187 192
150 157 146 149 185 166 170 256 279 213 207 198 199 181 161 151 153 152 147 132 127 131 139 157 168 175 181 182 184 188 185 187 191 193 190 184 183 183 181 179 183 189 190 187 188 194 191 190 193
Height
1488 1487 1488 1489 1492 1499 1499 1491 1485 1484 1482 1482 1483 1485 1487 1490 1494 1499 1495 1496 1502 1506 1510 1514 1518 1521 1523 1525 1527 1529 1531 1533 1535 1536 1538 1539 1541 1542 1543 1545 1546 1547 1548 1550 1551 1552 1553 1554 1555
1487 1488 1489 1490 1497 1509 1501 1488 1485 1483 1482 1482 1484 1485 1487 1489 1490 1491 1492 1498 1503 1507 1511 1515 1519 1522 1524 1527 1529 1531 1533 1535 1536 1538 1540 1541 1543 1544 1545 1547 1548 1550 1551 1552 1553 1554 1555 1557 1558
1487 1488 1490 1492 1499 1505 1496 1485 1483 1481 1482 1482 1485 1486 1488 1489 1489 1491 1494 1499 1504 1508 1512 1516 1520 1523 1526 1528 1530 1533 1534 1536 1538 1540 1542 1543 1545 1546 1547 1549 1550 1552 1553 1554 1555 1557 1558 1559 1560
1488 1490 1491 1497 1498 1493 1487 1482 1480 1481 1483 1483 1485 1488 1489 1491 1491 1493 1496 1500 1505 1510 1514 1518 1521 1524 1527 1529 1532 1534 1536 1538 1540 1542 1543 1545 1547 1548 1549 1551 1552 1554 1555 1556 1558 1559 1560 1562 1563
1488 1489 1496 1502 1497 1487 1481 1479 1480 1481 1482 1484 1485 1488 1490 1492 1493 1495 1498 1502 1506 1511 1515 1519 1522 1525 1528 1531 1533 1535 1538 1540 1541 1543 1545 1547 1549 1550 1551 1553 1555 1556 1557 1559 1560 1561 1563 1564 1566
1488 1490 1503 1505 1495 1484 1479 1477 1478 1480 1482 1484 1486 1488 1491 1493 1494 1497 1500 1504 1508 1512 1516 1520 1523 1527 1530 1532 1535 1537 1539 1541 1543 1545 1547 1549 1550 1552 1554 1555 1557 1558 1560 1561 1562 1564 1565 1567 1568
1489 1494 1500 1498 1494 1486 1478 1476 1477 1479 1481 1484 1485 1488 1490 1493 1496 1498 1502 1506 1510 1514 1517 1521 1524 1528 1531 1533 1536 1538 1540 1542 1544 1546 1548 1550 1552 1554 1555 1557 1559 1560 1562 1563 1565 1566 1568 1569 1570
1487 1493 1497 1498 1493 1487 1478 1477 1477 1478 1481 1483 1485 1486 1489 1491 1495 1499 1503 1507 1511 1515 1518 1521 1525 1528 1531 1534 1537 1539 1541 1544 1546 1548 1550 1552 1553 1555 1557 1559 1561 1562 1564 1565 1567 1568 1570 1571 1573
1486 1496 1501 1495 1490 1484 1478 1478 1478 1478 1480 1483 1484 1485 1486 1490 1494 1498 1503 1507 1511 1515 1518 1522 1525 1528 1531 1534 1537 1540 1542 1545 1547 1549 1551 1553 1555 1556 1558 1560 1562 1564 1566 1567 1569 1570 1572 1573 1575
1486 1497 1492 1484 1481 1479 1477 1478 1478 1479 1480 1482 1483 1484 1486 1489 1493 1496 1499 1503 1508 1512 1517 1521 1524 1528 1531 1534 1537 1540 1543 1545 1547 1550 1552 1554 1556 1558 1560 1562 1564 1566 1567 1569 1570 1572 1573 1575 1576
1483 1486 1481 1478 1477 1477 1477 1476 1476 1478 1480 1477 1477 1480 1484 1488 1492 1495 1498 1502 1506 1511 1516 1520 1524 1528 1531 1534 1537 1540 1543 1545 1548 1550 1552 1555 1557 1559 1561 1563 1565 1567 1568 1570 1571 1573 1575 1576 1578
1481 1478 1477 1475 1475 1475 1475 1474 1475 1474 1473 1474 1475 1478 1481 1485 1488 1492 1496 1501 1506 1511 1515 1519 1523 1527 1531 1534 1537 1540 1542 1545 1548 1550 1553 1555 1557 1559 1561 1563 1565 1567 1569 1571 1573 1574 1576 1578 1579
1478 1476 1474 1473 1472 1472 1472 1472 1472 1470 1470 1472 1475 1478 1480 1483 1487 1492 1496 1501 1505 1509 1514 1518 1522 1526 1530 1533 1537 1539 1542 1545 1548 1551 1553 1556 1558 1560 1562 1564 1566 1569 1571 1572 1574 1576 1577 1579 1580
1473 1473 1472 1470 1469 1469 1469 1469 1470 1466 1468 1470 1472 1476 1479 1482 1486 1491 1495 1499 1503 1508 1512 1517 1521 1525 1529 1533 1536 1539 1542 1546 1548 1551 1554 1556 1559 1561 1563 1565 1567 1569 1571 1573 1575 1577 1578 1579 1581
1472 1473 1471 1468 1467 1467 1468 1471 1468 1465 1466 1469 1471 1475 1479 1483 1486 1488 1491 1496 1501 1506 1511 1516 1520 1524 1528 1532 1535 1539 1542 1545 1548 1551 1554 1556 1559 1561 1563 1566 1568 1570 1572 1574 1575 1577 1578 1580 1581
1471 1476 1480 1471 1466 1466 1471 1477 1466 1465 1466 1468 1471 1474 1478 1481 1485 1489 1492 1496 1500 1504 1509 1514 1518 1522 1526 1530 1534 1538 1541 1545 1548 1551 1554 1556 1558 1561 1563 1566 1568 1570 1572 1574 1575 1577 1578 1580 1581
1481 1486 1482 1475 1467 1467 1471 1474 1466 1465 1465 1467 1470 1473 1476 1480 1483 1487 1491 1495 1499 1502 1506 1511 1515 1519 1524 1528 1533 1536 1540 1543 1547 1550 1553 1555 1558 1560 1563 1565 1567 1570 1571 1573 1575 1577 1578 1580 1581
1487 1483 1481 1479 1470 1469 1471 1471 1465 1465 1466 1467 1469 1471 1474 1476 1479 1483 1488 1493 1497 1501 1505 1509 1513 1517 1522 1526 1530 1534 1538 1541 1545 1548 1551 1554 1557 1559 1562 1564 1567 1569 1571 1573 1574 1576 1578 1579 1581
1475 1478 1481 1477 1469 1470 1472 1470 1466 1464 1466 1467 1469 1470 1472 1473 1477 1482 1486 1490 1495 1499 1502 1506 1509 1514 1519 1522 1526 1530 1534 1538 1542 1546 1549 1552 1555 1558 1560 1563 1565 1567 1569 1572 1574 1575 1577 1579 1580
1474 1479 1480 1474 1468 1469 1472 1471 1466 1465 1465 1465 1466 1467 1469 1471 1475 1479 1483 1487 1490 1494 1498 1502 1506 1510 1513 1518 1522 1527 1531 1535 1540 1543 1547 1550 1553 1556 1559 1561 1563 1566 1568 1570 1572 1574 1576 1577 1579
1473 1477 1476 1476 1472 1469 1472 1476 1470 1466 1465 1465 1466 1466 1467 1468 1471 1476 1479 1483 1486 1490 1494 1498 1502 1505 1509 1514 1519 1524 1529 1533 1536 1540 1543 1547 1550 1553 1556 1559 1561 1564 1566 1568 1570 1572 1574 1576 1578
1476 1466 1468 1472 1480 1485 1479 1492 1475 1469 1466 1464 1464 1464 1464 1467 1470 1473 1476 1479 1482 1486 1490 1494 1498 1501 1505 1510 1514 1518 1521 1525 1530 1535 1539 1544 1547 1550 1553 1556 1559 1561 1564 1566 1568 1570 1572 1574 1575
1465 1460 1465 1469 1478 1486 1484 1491 1483 1471 1469 1464 1462 1461 1462 1464 1467 1470 1473 1476 1479 1483 1486 1490 1493 1497 1501 1505 1509 1514 1518 1522 1527 1532 1536 1540 1544 1547 1550 1553 1556 1558 1561 1563 1565 1567 1569 1571 1573
1456 1463 1470 1479 1485 1496 1486 1491 1487 1475 1467 1462 1460 1459 1460 1461 1464 1467 1471 1474 1476 1479 1483 1486 1489 1492 1496 1500 1504 1509 1513 1517 1522 1527 1531 1536 1540 1543 1547 1550 1553 1555 1558 1560 1562 1564 1566 1568 1570
1458 1476 1494 1495 1503 1500 1486 1488 1483 1465 1460 1459 1458 1458 1458 1460 1462 1464 1467 1469 1473 1475 1478 1481 1484 1487 1491 1495 1500 1504 1508 1513 1517 1522 1526 1531 1535 1538 1542 1546 1549 1552 1554 1557 1559 1561 1563 1565 1567
1459 1468 1491 1501 1503 1498 1487 1487 1473 1460 1458 1457 1457 1456 1457 1459 1460 1462 1465 1467 1470 1473 1475 1477 1480 1482 1486 1490 1495 1499 1504 1508 1512 1517 1522 1526 1530 1534 1538 1542 1545 1548 1551 1554 1556 1558 1560 1562 1564
1459 1465 1466 1486 1492 1496 1491 1481 1467 1457 1457 1456 1456 1456 1456 1457 1459 1461 1463 1465 1468 1470 1473 1475 1477 1479 1481 1486 1491 1495 1499 1503 1507 1513 1517 1521 1526 1530 1534 1538 1541 1544 1547 1550 1553 1555 1557 1559 1560
1446 1457 1473 1485 1498 1500 1488 1484 1477 1462 1459 1457 1456 1456 1456 1457 1458 1460 1462 1464 1466 1469 1471 1473 1475 1477 1480 1484 1487 1490 1493 1498 1503 1508 1512 1516 1521 1526 1530 1534 1537 1541 1543 1546 1549 1551 1553 1555 1557
1452 1458 1467 1480 1482 1495 1497 1486 1459 1456 1454 1455 1454 1455 1456 1457 1458 1460 1461 1463 1466 1468 1470 1471 1473 1476 1478 1481 1484 1487 1490 1494 1498 1502 1507 1512 1517 1521 1525 1529 1533 1536 1540 1543 1545 1547 1550 1552 1553
1439 1449 1460 1474 1481 1485 1488 1481 1451 1451 1451 1452 1453 1454 1456 1457 1459 1460 1462 1463 1465 1468 1469 1471 1473 1475 1477 1479 1481 1484 1487 1490 1494 1498 1502 1507 1512 1517 1521 1525 1529 1532 1536 1539 1541 1544 1546 1548 1550